Regional Weather Roundup
Issued by NWS Goodland, KS

Home | Current Version | Previous Version | Text Only | Print | Product List | Glossary Off
Versions: 1 2 3 4 5 6 7 8 9 10 11 12 13 14 15 16 17 18 19 20 21 22 23 24 25 26 27 28 29 30 31 32 33 34 35 36 37 38 39 40 41 42 43 44 45 46 47 48 49 50

000
ASUS43 KGLD 310408
RWRGLD

GOODLAND FORECAST AREA HOURLY WEATHER ROUNDUP
NATIONAL WEATHER SERVICE GOODLAND KS
1000 PM MDT TUE AUG 30 2016

...OFFICIAL OBSERVATIONS...

CITY           SKY/WX    TMP DP  RH WIND       PRES   REMARKS
GOODLAND KS    MOCLDY    63  59  87 E3        30.24S
HILL CITY KS   CLOUDY    68  66  93 CALM      30.20F
IMPERIAL NEB   CLOUDY    66  63  90 E7        30.25S
MCCOOK NEB     CLOUDY    69  65  86 NE5       30.23S
AKRON CO       PTCLDY    60  57  89 SE5       30.30R
BURLINGTON CO  PTCLDY    60  55  83 E9        30.25F
LIMON CO       PTCLDY    57  51  80 CALM      30.33S
$$

...UNOFFICIAL OBSERVATIONS...

CITY           SKY/WX    TMP DP  RH WIND       PRES   REMARKS
COLBY KS       CLEAR     66  66 100 E5        30.25S
LENORA KS        N/A     67  32  27 MISG        N/A
NORTON KS      MOCLDY    68  63  83 SE3       30.20F
SHARON SPRINGS   N/A     65  61  86 SE6         N/A
TRIBUNE KS     CLOUDY    64  63  94 SE3       30.27
TRENTON NEB      N/A     66  32  28 MISG        N/A
KIT CARSON CO    N/A     61  56  83 CALM        N/A
YUMA CO          N/A     63  59  87 CALM        N/A
$$




USA.gov is the U.S. government's official web portal to all federal, state and local government web resources and services.